ARABSAT-6A (44186 NORAD) Tracking and Keplerian Element Data

This shows tracking and keplerian element data for the satellite.

Feedback or suggestion? Click here.




ElementValue
Catalog44186
NameARABSAT-6A
Epoch Orbit94
Epoch Day202.84258319
Epoch Year2019
RAAN76.8132
Inclination0.0198
Eccentricity0.0001249
Argument of Perigee126.0295
Mean Anonmoly70.3112
Mean Motion1.00275445
Decay Rate1.51E-06
L11 44186U 19021A 19202.84258319 .00000151 00000-0 00000-0 0 9997
L22 44186 0.0198 76.8132 0001249 126.0295 70.3112 1.00275445 946

Live tracking and technical data element details for ARABSAT-6A (NORAD 44186). ARABSAT-6A can be tracked NOW for your location showing map with azimuth and elevation plus other details from your city location.

Track the satellite on the map from your city or location and see movement details for azimuth, elevation, latitude, longitude, range, height, and movement on the map or in text.







IsCatalogInMostPopularTable: catalog: 44186, numindb: 34
Update: records affected: 1



GetName: 44186 ARABSAT-6A

Hit Count: updated at: Mon, 22 Jul 2019 17:15:53 GMT